Location: Newark
(5.8900°S, 42.6378°W)
Time: 03:17:00
(UTC+00:00)

Vanguard 1 Rocket - Pass Details

Date: 18 October 2019
Orbit: 651 x 4225 km, 34.3° (Epoch: 14 November)

Event Time Altitude Azimuth Distance (km) Brightness Sun altitude
Rises 20:26:58 0° 317° (NW) 8,459 12.8 3.1°
Reaches altitude 10° 20:33:29 10° 322° (NW) 7,380 12.4 1.5°
Maximum altitude 20:56:56 51° 32° (NNE) 3,735 10.3 -4.2°
Drops below altitude 10° 21:10:44 10° 104° (ESE) 4,642 10.4 -7.6°
Enters shadow 21:13:03 - 109° (ESE) 5,129 10.7 -8.1°
Sets 21:13:41 0° 110° (ESE) 5,269 - -8.3°
